Regional Weather Roundup
Issued by NWS Charleston, SC

Current Version | Previous Version | Graphics & Text | Print | Product List | Glossary On
Versions: 1 2 3 4 5 6 7 8 9 10 11 12 13 14 15 16 17 18 19 20 21 22 23 24 25 26 27 28 29 30 31 32 33 34 35 36 37 38 39 40 41 42 43 44 45 46 47 48 49 50
000
ASUS42 KCHS 291311
RWRCHS

REGIONAL WEATHER ROUNDUP
NATIONAL WEATHER SERVICE CHARLESTON SC
900 AM EDT WED JUL 29 2015

NOTE: "FAIR" INDICATES FEW OR NO CLOUDS BELOW 12,000 FEET WITH NO
SIGNIFICANT WEATHER AND/OR OBSTRUCTIONS TO VISIBILITY.

NOT ALL STATIONS ARE QUALITY CONTROLLED BY THE NATIONAL
WEATHER SERVICE. USE DATA WITH CAUTION...ESPECIALLY
DEWPOINT OBSERVATIONS.

SCZ027-030-031-034>040-042>050-291400-
...SOUTHEAST SOUTH CAROLINA...

CITY           SKY/WX    TMP DP  RH WIND       PRES   REMARKS
N CHARLESTON   MOSUNNY   82  75  79 E7        29.98S
WATERFRONT PRK   N/A     80  76  87 N6        29.95R
MOUNT PLEASANT LGT RAIN  81  75  83 CALM      29.98S
JOHNS ISLAND   FAIR      82  77  83 E6        29.98R HX  91
PINOPOLIS      NOT AVBL
MONCKS CORNER  FAIR      82  73  74 CALM      30.00R
SUMMERVILLE    FAIR      79  75  89 N3        30.00S
BEAUFORT MCAS  PTSUNNY   82  76  81 NE6       29.99R
BEAUFORT ARPT  FAIR      81  77  89 NE6       29.98R
HILTON HEAD IS MOSUNNY   82  75  78 N6        29.99R
WALTERBORO     SUNNY     82  73  74 NE6       30.00S
ALLENDALE      PTSUNNY   79  75  89 CALM      29.99R

...SOUTHERN MIDLANDS AND PEE DEE...

CITY           SKY/WX    TMP DP  RH WIND       PRES   REMARKS
GEORGETOWN     NOT AVBL
KINGSTREE      NOT AVBL
ORANGEBURG     MOSUNNY   81  74  79 E6        30.01R
BARNWELL       FAIR      81  75  83 CALM      30.01R
AIKEN          FAIR      79  70  73 E5        30.05R
MANNING        FAIR      77  68  73 CALM      30.00S
COLUMBIA       PTSUNNY   80  72  76 CALM      30.01R
SUMTER         SUNNY     81  71  73 E6        30.00R
FLORENCE       MOSUNNY   80  72  76 E3        30.01R
MYRTLE BEACH   NOT AVBL
N MYRTLE BEACH SUNNY     81  73  76 NE7       29.99R

$$

GAZ063-065-086>088-099>101-113>116-118-119-134>141-150-291400-
...SOUTHEAST GEORGIA...

CITY           SKY/WX    TMP DP  RH WIND       PRES   REMARKS
SAVANNAH ARPT  PTSUNNY   82  74  76 E6        29.99R
HUNTER AAF     MOSUNNY   83  78  84 NE5       29.96R HX  93
FORT STEWART   MOSUNNY   79  76  89 VRB1      29.97R
STATESBORO     CLOUDY    81  81 100 CALM      30.00R HX  92
SYLVANIA       MOSUNNY   81  78  90 E5        30.01R
CLAXTON        FAIR      81  77  89 CALM      29.99S FOG

...CSRA...CENTRAL AND FAR SOUTHEAST GEORGIA...

CITY           SKY/WX    TMP DP  RH WIND       PRES   REMARKS
THOMSON        SUNNY     83  78  85 CALM      30.05R HX  93
AUGUSTA-BUSH   MOSUNNY   82  75  79 VRB3      29.99R
AUGUSTA-DANIEL SUNNY     81  74  79 S5        30.01R
SWAINSBORO     CLOUDY   N/A N/A N/A S3        30.01R
VIDALIA        SUNNY     81  77  89 SE5       29.99S
EASTMAN        CLOUDY    79  79  99 CALM      30.02R
HAZLEHURST     FAIR      83  77  83 S3        29.98R HX  91
ALMA           MOSUNNY   81  76  84 E6        29.98R
WAYCROSS       MOSUNNY   83  81  93 SE3       29.98R HX  97
JESUP          FAIR      82  79  89 CALM      29.99R HX  93
BAXLEY         FAIR      82  77  83 SE6       29.98S HX  91
BRUNSWICK      PTSUNNY   77  73  88 NW3       29.98S
SAINT SIMONS   MOSUNNY   82  77  84 VRB5      29.97R HX  90

$$

SCZ027-028-034-036>038-045-046-048>050-GAZ119-141-291400-
...LAKE AND SUPPLEMENTAL COASTAL OBSERVATIONS...

STATION/POSITION TIME  TEMP    WIND        PRES    WAVE   SWELL
                       AIR SEA DIR/SP/G            HT/PER HT/PER/DIR
                 (UTC) (F)     (DEG/KT/KT) (MB)    (FT/S) (FT/S/D)
UPR LAKE MARION  NOT AVBL
WINYAH BAY       NOT AVBL
LAKE MURRAY      1200   79     130/  4/  5 1015.6R
ACE BASIN NERRS  NOT AVBL
FORT PULASKI     1200   81 86   20/  6/  9 1015.4R
SAPELO ISLAND    1200   80     320/  4     1015.0R

$$

ANZ835-935-AMZ111-154-330-350-352-354-370-450-454-472-291400-
...C-MAN AND BUOY OBSERVATIONS...

STATION/POSITION TIME  TEMP    WIND        PRES    WAVE   SWELL
                       AIR SEA DIR/SP/G            HT/PER HT/PER/DIR
                 (UTC) (F)     (DEG/KT/KT) (MB)    (FT/S) (FT/S/D)
BUOY 41004       1250   83 84   60/ 10/ 12 1014.2R   3/ 7   2/ 7
BUOY 41008       1250   81 82   40/ 10/ 10 1014.8R   2/ 6   2/120/ 6
FOLLY BEACH CMAN 1200   80      20/  6/  8 1015.0R
CAPERS NEARSHORE 1208   82      60/ 10/ 14 1014.9R
FRIPP NEARSHORE  1200   82      40/  8/ 10 1014.4R


STATION/POSITION TIME  TEMP    WIND        PRES    WAVE   SWELL
                       AIR SEA DIR/SP/G            HT/PER HT/PER/DIR
                 (UTC) (F)     (DEG/KT/KT) (MB)    (FT/S) (FT/S/D)
5E ST. MARYS GA  1221      82                N/A     2/ 5
FRYING PAN BUOY  1250   83 84   60/ 14/ 16 1014.8R   4/ 7   2/150/ 7
BUOY 41025       NOT AVBL
CAPE LOOKOUT NC  1200   80      80/ 13/ 14 1015.1R
BUOY 41002       1250   82 81  230/ 16/ 17 1015.2R   7/ 7   2/110/11
BUOY 41010       1220   83 84  230/ 17/ 21 1013.3R
ST AUGUSTINE FL  1300   80 80  340/  9/ 11 1015.2R


$$


USA.gov is the U.S. government's official web portal to all federal, state and local government web resources and services.